• In Denmark
  • List of Countries
  • For 7 days
  • Water Temperature
  • Satellite Maps
  • Weather Map
  • Weather Widgets
  • user-avatar
    Login

    Hourly Weather Rzezawy

    Today, 22 August, Wednesday

    Time Temperature Precipitation Wind Pressure Humidity
    00:00 +18°C° 0 mm 1 mps 754 mmHg 63%
    01:00 +18°C° 0 mm 1 mps 754 mmHg 65%
    02:00 +16°C° 0 mm 1 mps 754 mmHg 67%
    03:00 +16°C° 0 mm 2 mps 754 mmHg 68%
    04:00 +15°C° 0 mm 2 mps 754 mmHg 70%
    05:00 +16°C° 0 mm 2 mps 754 mmHg 68%
    06:00 +17°C° 0 mm 2 mps 754 mmHg 66%
    07:00 +18°C° 0 mm 3 mps 755 mmHg 64%
    08:00 +20°C° 0 mm 3 mps 755 mmHg 59%
    09:00 +22°C° 0 mm 3 mps 755 mmHg 53%
    10:00 +25°C° 0 mm 3 mps 755 mmHg 48%
    11:00 +25°C° 0 mm 3 mps 754 mmHg 45%
    12:00 +26°C° 0 mm 3 mps 754 mmHg 43%
    13:00 +27°C° 0 mm 3 mps 753 mmHg 40%
    14:00 +27°C° 0 mm 2 mps 753 mmHg 40%
    15:00 +28°C° 0 mm 2 mps 753 mmHg 39%
    16:00 +28°C° 0 mm 2 mps 752 mmHg 39%
    17:00 +26°C° 0 mm 2 mps 752 mmHg 43%
    18:00 +25°C° 0 mm 2 mps 752 mmHg 48%
    19:00 +22°C° 0 mm 3 mps 752 mmHg 53%
    20:00 +21°C° 0 mm 3 mps 752 mmHg 54%
    21:00 +21°C° 0 mm 3 mps 752 mmHg 56%
    22:00 +20°C° 0 mm 3 mps 752 mmHg 58%
    23:00 +20°C° 0 mm 3 mps 752 mmHg 60%

    Tomorrow, 23 August, Thursday

    Time Temperature Precipitation Wind Pressure Humidity
    00:00 +19°C° 0 mm 3 mps 752 mmHg 62%
    01:00 +19°C° 0 mm 3 mps 752 mmHg 64%
    02:00 +19°C° 0 mm 3 mps 751 mmHg 67%
    03:00 +19°C° 0 mm 3 mps 751 mmHg 70%
    04:00 +18°C° 0 mm 3 mps 751 mmHg 73%
    05:00 +19°C° 0 mm 4 mps 751 mmHg 71%
    06:00 +20°C° 0 mm 4 mps 751 mmHg 69%
    07:00 +21°C° 0 mm 4 mps 750 mmHg 67%
    08:00 +23°C° 0 mm 4 mps 750 mmHg 62%
    09:00 +26°C° 0 mm 4 mps 750 mmHg 57%
    10:00 +27°C° 0 mm 4 mps 750 mmHg 51%
    11:00 +29°C° 0 mm 4 mps 749 mmHg 48%
    12:00 +30°C° 0 mm 3 mps 749 mmHg 46%
    13:00 +31°C° 0 mm 3 mps 748 mmHg 43%
    14:00 +31°C° 0 mm 3 mps 748 mmHg 43%
    15:00 +31°C° 0 mm 3 mps 748 mmHg 43%
    16:00 +31°C° 0 mm 2 mps 747 mmHg 43%
    17:00 +30°C° 0.2 mm 2 mps 747 mmHg 47%
    18:00 +29°C° 0.2 mm 2 mps 747 mmHg 50%
    19:00 +28°C° 0.2 mm 2 mps 747 mmHg 54%
    20:00 +27°C° 0.3 mm 2 mps 747 mmHg 56%
    21:00 +26°C° 0.3 mm 2 mps 747 mmHg 59%
    22:00 +25°C° 0.3 mm 3 mps 747 mmHg 62%
    23:00 +25°C° 0.2 mm 3 mps 747 mmHg 65%

    Day after tomorrow, 24 August, Friday

    Time Temperature Precipitation Wind Pressure Humidity
    00:00 +24°C° 0.2 mm 3 mps 746 mmHg 68%
    01:00 +22°C° 0.2 mm 3 mps 746 mmHg 71%
    02:00 +22°C° 0.2 mm 3 mps 746 mmHg 72%
    03:00 +22°C° 0.2 mm 3 mps 745 mmHg 73%
    04:00 +21°C° 0.2 mm 3 mps 745 mmHg 74%
    05:00 +22°C° 0.2 mm 3 mps 745 mmHg 71%
    06:00 +23°C° 0.2 mm 4 mps 745 mmHg 68%
    07:00 +25°C° 0.2 mm 4 mps 745 mmHg 65%
    08:00 +27°C° 0 mm 4 mps 744 mmHg 59%
    09:00 +28°C° 0 mm 5 mps 744 mmHg 53%
    10:00 +30°C° 0 mm 5 mps 744 mmHg 48%
    11:00 +32°C° 0 mm 5 mps 744 mmHg 45%
    12:00 +32°C° 0 mm 5 mps 744 mmHg 43%
    13:00 +33°C° 0 mm 5 mps 743 mmHg 41%
    14:00 +32°C° 0 mm 4 mps 743 mmHg 45%
    15:00 +30°C° 0 mm 4 mps 743 mmHg 49%
    16:00 +29°C° 0 mm 4 mps 743 mmHg 53%
    17:00 +27°C° 0.7 mm 4 mps 743 mmHg 60%
    18:00 +26°C° 0.7 mm 3 mps 743 mmHg 67%
    19:00 +24°C° 0.7 mm 3 mps 743 mmHg 74%
    20:00 +22°C° 1.3 mm 3 mps 743 mmHg 78%
    21:00 +21°C° 1.3 mm 2 mps 743 mmHg 82%
    22:00 +21°C° 1.3 mm 2 mps 743 mmHg 86%
    23:00 +20°C° 1.4 mm 2 mps 744 mmHg 87%

    25 August, Saturday

    Time Temperature Precipitation Wind Pressure Humidity
    00:00 +20°C° 1.4 mm 3 mps 744 mmHg 87%
    01:00 +20°C° 1.4 mm 3 mps 744 mmHg 88%
    02:00 +19°C° 0.3 mm 3 mps 744 mmHg 89%
    03:00 +19°C° 0.3 mm 3 mps 744 mmHg 90%
    04:00 +18°C° 0.3 mm 3 mps 744 mmHg 91%
    05:00 +18°C° 0.1 mm 3 mps 745 mmHg 89%
    06:00 +18°C° 0.1 mm 3 mps 745 mmHg 88%
    07:00 +18°C° 0.1 mm 3 mps 745 mmHg 87%
    08:00 +19°C° 0.1 mm 3 mps 746 mmHg 83%
    09:00 +19°C° 0.1 mm 3 mps 746 mmHg 78%
    10:00 +19°C° 0.1 mm 3 mps 746 mmHg 74%
    11:00 +20°C° 0.1 mm 4 mps 746 mmHg 69%
    12:00 +20°C° 0.1 mm 4 mps 746 mmHg 64%
    13:00 +21°C° 0.1 mm 4 mps 746 mmHg 59%
    14:00 +20°C° 0 mm 4 mps 746 mmHg 57%
    15:00 +20°C° 0 mm 4 mps 747 mmHg 55%
    16:00 +20°C° 0 mm 4 mps 747 mmHg 53%
    17:00 +19°C° 0.3 mm 4 mps 747 mmHg 59%
    18:00 +18°C° 0.3 mm 3 mps 747 mmHg 65%
    19:00 +16°C° 0.3 mm 3 mps 747 mmHg 71%
    20:00 +16°C° 0.1 mm 3 mps 748 mmHg 73%
    21:00 +14°C° 0.1 mm 3 mps 748 mmHg 76%
    22:00 +14°C° 0.1 mm 3 mps 748 mmHg 78%
    23:00 +14°C° 0 mm 3 mps 748 mmHg 78%

    26 August, Sunday

    Time Temperature Precipitation Wind Pressure Humidity
    00:00 +14°C° 0 mm 3 mps 748 mmHg 78%
    01:00 +14°C° 0 mm 3 mps 748 mmHg 79%
    02:00 +13°C° 0 mm 3 mps 748 mmHg 79%
    03:00 +13°C° 0 mm 3 mps 748 mmHg 80%
    04:00 +14°C° 0 mm 2 mps 748 mmHg 81%
    05:00 +14°C° 0 mm 2 mps 748 mmHg 78%
    06:00 +15°C° 0 mm 2 mps 748 mmHg 75%
    07:00 +15°C° 0 mm 2 mps 749 mmHg 72%
    08:00 +16°C° 0 mm 2 mps 749 mmHg 67%
    09:00 +17°C° 0 mm 2 mps 749 mmHg 61%
    10:00 +18°C° 0 mm 2 mps 749 mmHg 55%
    11:00 +19°C° 0.1 mm 1 mps 749 mmHg 53%
    12:00 +20°C° 0.1 mm 1 mps 749 mmHg 51%
    13:00 +20°C° 0.1 mm 1 mps 749 mmHg 49%
    14:00 +20°C° 0 mm 1 mps 749 mmHg 50%
    15:00 +20°C° 0 mm 1 mps 749 mmHg 51%
    16:00 +19°C° 0 mm 2 mps 749 mmHg 53%
    17:00 +18°C° 0 mm 2 mps 749 mmHg 56%
    18:00 +17°C° 0 mm 2 mps 750 mmHg 59%
    19:00 +16°C° 0 mm 2 mps 750 mmHg 62%
    20:00 +16°C° 0 mm 2 mps 750 mmHg 64%
    21:00 +15°C° 0 mm 2 mps 750 mmHg 66%
    22:00 +14°C° 0 mm 2 mps 751 mmHg 68%
    23:00 +14°C° 0 mm 2 mps 751 mmHg 70%

    27 August, Monday

    Time Temperature Precipitation Wind Pressure Humidity
    00:00 +13°C° 0 mm 2 mps 751 mmHg 71%
    01:00 +13°C° 0 mm 2 mps 751 mmHg 72%
    02:00 +13°C° 0 mm 2 mps 752 mmHg 74%
    03:00 +12°C° 0 mm 2 mps 752 mmHg 75%
    04:00 +12°C° 0 mm 2 mps 752 mmHg 77%
    05:00 +13°C° 0 mm 2 mps 752 mmHg 75%
    06:00 +14°C° 0 mm 2 mps 753 mmHg 73%
    07:00 +15°C° 0 mm 2 mps 753 mmHg 71%
    08:00 +16°C° 0 mm 2 mps 753 mmHg 64%
    09:00 +18°C° 0 mm 2 mps 753 mmHg 57%
    10:00 +19°C° 0 mm 3 mps 753 mmHg 50%
    11:00 +20°C° 0 mm 3 mps 753 mmHg 46%
    12:00 +21°C° 0 mm 3 mps 753 mmHg 42%
    13:00 +21°C° 0 mm 3 mps 753 mmHg 38%
    14:00 +22°C° 0 mm 3 mps 753 mmHg 37%
    15:00 +23°C° 0 mm 2 mps 753 mmHg 37%
    16:00 +23°C° 0 mm 2 mps 753 mmHg 36%
    17:00 +20°C° 0 mm 2 mps 754 mmHg 40%
    18:00 +19°C° 0 mm 2 mps 754 mmHg 44%
    19:00 +18°C° 0 mm 2 mps 754 mmHg 47%
    20:00 +18°C° 0 mm 1 mps 754 mmHg 49%
    21:00 +16°C° 0 mm 1 mps 755 mmHg 51%
    22:00 +16°C° 0 mm 1 mps 755 mmHg 53%
    23:00 +15°C° 0 mm 1 mps 755 mmHg 56%
    Show more